星链-32593 (STARLINK-32593)

导读

STARLINK-32593是美国SpaceX公司星链(Starlink)星座的成员,于2024年11月14日发射。作为低轨宽带通信卫星,它依托星链星座部署,为全球偏远地区、基础设施缺失区域提供高速低延迟的互联网接入服务,支持日常联网、应急通信等多元场景,是SpaceX大规模星座扩张计划中的一颗量产卫星,延续了星链平板设计、霍尔推进等成熟技术方案,服务在轨组网目标。

基本信息
目录编号:
61974
目录名称:
STARLINK-32593
国际标识:
2024-210R
轨道中心:
EARTH
卫星名称:
星链-32593
卫星全名:
星链-32593 (STARLINK-32593)
卫星状态:
在轨 (已飞行580 天)
发射日期:
2024-11-14 UTC
国别 :
美国 (US)
星等 :
--
轨道信息
数据来源 国际轨道数据
星历时间: 2026-06-17T12:44:43+0800
14小时前
查看轨道信息
半长轴: 6861.133km
偏心率: 0.0003891
轨道倾角: 43.009°
近地点辐角 267.392°
升交点赤经 338.267°
平近点角 92.649°
近地点: 480.326km
远地点: 485.666km
周期: 94.266分钟
每日圈数: 15.275979
详细信息
固有亮度:
5
最大亮度:
2.5
卫星平台:
Starlink V1.0
覆盖范围:
全球
运营商:
太空探索技术公司
运营商所在国:
美国
制造商(研发单位):
太空探索技术公司
制造商所在国:
美国
使用方式:
暂无
卫星简介
Starlink 计划是 SpaceX 推出的全球卫星互联网项目,通过发射低轨道卫星,为全球尤其是偏远地区提供高速、低延迟的互联网服务。自 2019 年起,Starlink 已部署数千颗卫星,旨在缩小全球数字鸿沟,推动互联网普及。该项目还为军事、航空等行业提供通信支持,带来广泛经济效益。
2D轨道图
3D轨道图
轨道高度分析图
轨道倾角分析图
轨道综合分析图
查看轨道综合分析图